This demonstration page uses our WeatherBlox Daily Observations layout. Learn more.

Hourly Observations for March 30, 2020

Temp ( °F °C ) Dew Point ( °F °C ) Humidity (%) Winds ( mph kmh ) Pressure ( in mb ) Visibility ( mi km ) Precip ( " mm )
12:15 am 00:15 Partly Cloudy 42 5.6 31 -0.7 64 64 SSE 5 7 30.14 1021 10 16.0934 0 0
12:35 am 00:35 Partly Cloudy 43 5.9 31 -0.7 63 63 SSE 7 11 30.14 1021 10 16.0934 0 0
12:55 am 00:55 Clear 43 6.1 30 -0.9 61 61 SSE 8 13 30.15 1021 10 16.0934 0 0
1:15 am 01:15 Clear 42 5.5 31 -0.8 64 64 SSE 8 13 30.15 1021 10 16.0934 0 0
1:35 am 01:35 Clear 43 6.1 30 -1.1 60 60 SSE 8 13 30.15 1021 10 16.0934 0 0
1:55 am 01:55 Clear 41 5 30 -1 66 66 SE 6 9 30.16 1021 10 16.0934 0 0
2:15 am 02:15 Clear 41 4.8 30 -1.2 65 65 SSE 6 9 30.16 1021 10 16.0934 0 0
2:35 am 02:35 Clear 40 4.3 30 -1.2 68 68 SSE 7 11 30.17 1022 10 16.0934 0 0
2:55 am 02:55 Clear 41 5 30 -1 66 66 SSE 7 11 30.17 1022 10 16.0934 0 0
3:15 am 03:15 Clear 40 4.2 31 -0.8 70 70 SSE 6 9 30.18 1022 10 16.0934 0 0
3:35 am 03:35 Clear 40 4.7 31 -0.8 68 68 SSE 7 11 30.17 1022 10 16.0934 0 0
3:55 am 03:55 Clear 40 4.4 30 -0.9 69 69 SSE 7 11 30.17 1022 10 16.0934 0 0
4:15 am 04:15 Clear 39 3.9 30 -1 71 71 SSE 7 11 30.18 1022 10 16.0934 0 0
4:35 am 04:35 Clear 40 4.6 30 -1.1 67 67 SSE 7 11 30.17 1022 10 16.0934 0 0
4:55 am 04:55 Clear 39 3.8 30 -1.1 71 71 SSE 7 11 30.17 1022 10 16.0934 0 0
5:15 am 05:15 Clear 37 3 30 -1.2 74 74 SE 7 11 30.17 1022 10 16.0934 0 0
5:35 am 05:35 Clear 37 3 30 -1.3 74 74 SE 7 11 30.17 1022 10 16.0934 0 0
5:55 am 05:55 Clear 38 3.2 30 -1.1 74 74 SSE 7 11 30.16 1021 10 16.0934 0 0
6:15 am 06:15 Clear 36 2.4 30 -1.3 77 77 SE 6 9 30.17 1022 10 16.0934 0 0
6:35 am 06:35 Partly Cloudy 38 3.2 31 -0.5 77 77 SE 9 15 30.16 1021 10 16.0934 0 0
6:55 am 06:55 Mostly Cloudy 40 4.2 32 -0.2 73 73 SE 7 11 30.15 1021 10 16.0934 0 0
7:15 am 07:15 Cloudy 42 5.3 32 0 69 69 SE 8 13 30.14 1020 10 16.0934 0 0
7:35 am 07:35 Cloudy 43 6.1 33 0.4 67 67 SE 10 17 30.13 1020 10 16.0934 0 0
7:55 am 07:55 Cloudy 42 5.5 34 1 73 73 SE 10 17 30.13 1020 10 16.0934 0 0
8:15 am 08:15 Mostly Cloudy 43 6.3 34 1.2 70 70 SE 9 15 30.13 1020 10 16.0934 0 0
8:35 am 08:35 Mostly Cloudy 45 7.2 35 1.4 67 67 SE 9 15 30.13 1020 10 16.0934 0 0
8:55 am 08:55 Mostly Cloudy 46 7.6 36 2 68 68 SE 12 19 30.12 1020 10 16.0934 0 0
9:15 am 09:15 Cloudy 47 8.4 36 2.2 65 65 SE 12 19 30.12 1020 10 16.0934 0 0
9:35 am 09:35 Cloudy 48 9.1 36 2.4 63 63 SE 10 17 30.11 1020 10 16.0934 0 0
9:55 am 09:55 Cloudy 50 9.9 36 2.3 59 59 SE 10 17 30.09 1019 10 16.0934 0 0
10:15 am 10:15 Mostly Cloudy 52 11 36 2.1 55 55 SE 12 19 30.08 1019 10 16.0934 0 0
10:35 am 10:35 Partly Cloudy 55 13 36 2 47 47 SE 16 26 30.07 1018 10 16.0934 0 0
10:55 am 10:55 Mostly Cloudy 55 12.8 36 2.2 49 49 SE 14 22 30.07 1018 10 16.0934 0 0
11:15 am 11:15 Partly Cloudy 58 14.3 34 1.2 41 41 SSE 13 20 30.05 1017 10 16.0934 0 0
11:35 am 11:35 Mostly Cloudy 58 14.2 35 1.4 42 42 SSE 16 26 30.05 1017 10 16.0934 0 0
11:55 am 11:55 Mostly Cloudy 58 14.2 34 1.2 41 41 SSE 14 22 30.04 1017 10 16.0934 0 0
12:15 pm 12:15 Mostly Cloudy 58 14.4 35 1.5 42 42 SE 18 30 30.02 1017 10 16.0934 0 0
12:35 pm 12:35 Mostly Cloudy 60 15.5 34 0.9 37 37 SSE 17 28 30 1016 10 16.0934 0 0
12:55 pm 12:55 Sunny 64 17.9 35 1.7 34 34 SSE 21 33 29.97 1015 10 16.0934 0 0
1:15 pm 13:15 Sunny 64 18 34 1 32 32 SSE 20 31 29.96 1015 10 16.0934 0 0
1:35 pm 13:35 Sunny 64 17.8 34 1.1 33 33 SE 22 35 29.96 1014 10 16.0934 0 0
1:55 pm 13:55 Sunny 64 17.8 35 1.4 33 33 SE 18 30 29.96 1014 10 16.0934 0 0
2:15 pm 14:15 Partly Cloudy 64 18 35 1.7 34 34 SE 21 33 29.94 1014 10 16.0934 0 0
2:35 pm 14:35 Partly Cloudy 66 18.7 35 1.6 32 32 SSE 17 28 29.92 1013 10 16.0934 0 0
2:55 pm 14:55 Mostly Cloudy 66 18.7 35 1.4 32 32 SSE 18 30 29.91 1013 10 16.0934 0 0
3:15 pm 15:15 Mostly Cloudy 65 18.2 33 0.8 31 31 SSE 17 28 29.91 1013 10 16.0934 0 0
3:35 pm 15:35 Cloudy 64 17.5 34 1 33 33 S 16 26 29.91 1013 10 16.0934 0 0
3:55 pm 15:55 Cloudy 63 17.2 35 1.5 35 35 S 10 17 29.9 1013 10 16.0934 0 0
4:15 pm 16:15 Cloudy with Light Rain 62 16.5 36 2.2 38 38 S 22 35 29.92 1013 10 16.0934 0 0
4:35 pm 16:35 Cloudy with Light Rain 59 15.1 38 3.1 45 45 S 8 13 29.93 1013 10 16.0934 0 0
4:55 pm 16:55 Cloudy with Light Rain 61 15.9 37 2.6 41 41 SSW 8 13 29.92 1013 10 16.0934 0 0
5:15 pm 17:15 Cloudy 60 15.5 37 2.6 42 42 S 14 22 29.94 1014 10 16.0934 0 0
5:35 pm 17:35 Cloudy with Light Rain 59 14.8 35 1.8 42 42 SW 9 15 29.93 1014 10 16.0934 0 0
5:55 pm 17:55 Cloudy 60 15.6 33 0.8 37 37 WSW 5 7 29.92 1013 10 16.0934 0 0
6:15 pm 18:15 Cloudy 59 15.1 36 2.4 43 43 SSW 13 20 29.96 1015 10 16.0934 0 0
6:35 pm 18:35 Cloudy with Light Rain 56 13.3 40 4.4 55 55 W 6 9 29.99 1016 7 11.26538 0 0
6:55 pm 18:55 Cloudy 54 12.1 43 5.9 66 66 Calm 30 1016 10 16.0934 0 0
7:15 pm 19:15 Cloudy 53 11.6 42 5.7 67 67 NNE 3 6 30 1016 10 16.0934 0 0
7:35 pm 19:35 Cloudy with Light Rain 55 12.9 39 4.1 55 55 S 9 15 29.99 1015 10 16.0934 0 0
7:55 pm 19:55 Cloudy with Light Rain 54 12 40 4.6 61 61 SSW 13 20 30.01 1016 10 16.0934 0 0
8:15 pm 20:15 Cloudy with Light Rain 53 11.7 40 4.4 61 61 WSW 7 11 30 1016 10 16.0934 0 0
8:35 pm 20:35 Cloudy with Light Drizzle 52 11.1 41 4.9 66 66 W 5 7 30 1016 10 16.0934 0 0
8:55 pm 20:55 Cloudy 51 10.7 41 5.1 69 69 Calm 30.02 1016 10 16.0934 0 0
9:15 pm 21:15 Cloudy with Light Drizzle 52 10.9 42 5.8 71 71 S 3 6 30.03 1017 10 16.0934 0 0
9:35 pm 21:35 Cloudy with Light Drizzle 50 10.1 43 6.2 77 77 Calm 30.07 1018 10 16.0934 0 0
9:55 pm 21:55 Cloudy with Light Rain 50 10.1 43 6.1 76 76 E 8 13 30.07 1018 10 16.0934 0 0
10:15 pm 22:15 Cloudy with Light Rain 49 9.5 44 6.9 84 84 ENE 9 15 30.07 1018 10 16.0934 0 0
10:35 pm 22:35 Cloudy with Light Rain 48 9.1 45 7 87 87 Calm 30.07 1018 10 16.0934 0 0
10:55 pm 22:55 Cloudy with Light Drizzle 47 8.5 45 7.1 91 91 W 6 9 30.07 1018 10 16.0934 0 0
11:15 pm 23:15 Cloudy 47 8.5 45 7.2 92 92 Calm 30.07 1018 10 16.0934 0 0
11:35 pm 23:35 Cloudy 47 8.2 44 6.9 92 92 Calm 30.07 1018 10 16.0934 0 0
11:55 pm 23:55 Cloudy 46 7.6 44 6.7 94 94 Calm 30.07 1018 10 16.0934 0 0

Powered by AerisWeather